Regional Weather Roundup
Issued by NWS

Home | Current Version | Previous Version | Text Only | Print | Product List | Glossary Off
Versions: 1 2 3 4 5 6 7 8 9 10 11 12 13 14 15 16 17 18 19 20 21 22 23 24 25 26 27 28 29 30 31 32 33 34 35 36 37 38 39 40 41 42 43 44 45 46 47 48 49 50

000
ASUS44 KMEG 201010
RWRTN
TENNESSEE HOURLY STATE WEATHER ROUNDUP
NATIONAL WEATHER SERVICE MEMPHIS TN
500 AM CDT THU JUL 20 2017

TNZ002-004-019-021-049-052-054-088>092-201100-
WEST TENNESSEE

CITY           SKY/WX    TMP DP  RH WIND       PRES   REMARKS
MEMPHIS INTL   CLEAR     79  75  87 CALM      30.09S
NWS MEMPHIS      N/A     76 N/A N/A MISG        N/A
JACKSON        CLEAR     73  72  96 CALM      30.09S
SOMERVILLE       N/A     73  73 100 CALM      30.09R
COVINGTON      CLEAR     73  73 100 CALM      30.08F FOG
UNION CITY     FOG       72  72 100 CALM      30.07S VSB 1/4
BOLIVAR        CLEAR     72  72 100 CALM      30.09S
HUNTINGDON     CLEAR     73  73 100 CALM      30.09R
LEXINGTON      FOG       73  73 100 CALM      30.09S VSB 0
SELMER         CLEAR     73  72  94 CALM      30.10R
SAVANNAH       CLEAR     72  72 100 CALM      30.09S
$$

TNZ008-025-027-028-033-062-065-066-201100-
NORTH MIDDLE TENNESSEE

CITY           SKY/WX    TMP DP  RH WIND       PRES   REMARKS
NASHVILLE      PTCLDY    74  72  93 CALM      30.10S
PORTLAND         N/A     72  70  94 CALM      30.10S
CLARKSVILLE    PTCLDY    72  70  93 S5        30.09R FOG
SMYRNA         PTCLDY    71  70  96 S3        30.11R
COOKEVILLE       N/A     68  68 100 CALM      30.12R FOG
GALLATIN       MOCLDY    72  70  94 CALM      30.13R
CROSSVILLE     CLEAR     67  66  97 CALM      30.16F FOG
$$

TNZ061-075-076-078-094-096-097-201100-
SOUTH MIDDLE TENNESSEE

CITY           SKY/WX    TMP DP  RH WIND       PRES   REMARKS
FAYETTEVILLE   MOCLDY    73  72  94 CALM      30.11F
TULLAHOMA      CLEAR     70  66  88 CALM      30.14S
WINCHESTER     CLEAR     72  70  94 CALM      30.13S
MCMINNVILLE    CLEAR     72  72 100 CALM      30.13S
COLUMBIA       CLEAR     73  73 100 CALM      30.09R
$$

TNZ017-018-042-046-047-201100-
NORTHEAST TENNESSEE

CITY           SKY/WX    TMP DP  RH WIND       PRES   REMARKS
TRI CITIES     PTCLDY    65  64  97 CALM      30.14R FOG
ELIZABETHTON   MOCLDY    66  64  94 CALM      30.16R
$$

TNZ012-013-036-069-073-074-201100-
CENTRAL EAST TENNESSEE

CITY           SKY/WX    TMP DP  RH WIND       PRES   REMARKS
KNOXVILLE      CLEAR     72  66  81 SW3       30.11R
OAK RIDGE      CLEAR     70  67  90 CALM      30.12S
DOWNTOWN KNOXV   N/A     68  68 100 CALM      30.10R FOG
GATLINBURG     CLEAR     66  64  94 CALM      30.11R
MORRISTOWN     PTCLDY    70  66  88 CALM      30.12R
JACKSBORO        N/A     66  66 100 CALM      30.15S
$$

TNZ083-085-099-201100-
SOUTHEAST TENNESSEE

CITY           SKY/WX    TMP DP  RH WIND       PRES   REMARKS
CHATTANOOGA    PTCLDY    74  71  91 CALM      30.11R
DAYTON         CLOUDY    70  70 100 CALM      30.09S FOG
$$

SKY/WX REPORTED AS FAIR MEANS FEW OR NO CLOUDS BELOW
12 THOUSAND FEET.




USA.gov is the U.S. government's official web portal to all federal, state and local government web resources and services.